Location: Unspecified
(0.0000°N, 0.0000°E)
Time: 06:59:26
(UTC+00:00)

deb r/b Ablestar - Pass Details

Date: 13 October 2024
Orbit: 819 x 956 km, 66.7° (Epoch: 08 November)

Event Time Altitude Azimuth Distance (km) Brightness Sun altitude
Exits shadow 04:13:24 - 347° (NNW) 2,792 ? -23.0°
Reaches altitude 10° 04:13:48 10° 347° (NNW) 2,647 ? -22.9°
Maximum altitude 04:19:58 70° 71° (ENE) 1,006 ? -21.3°
Drops below altitude 10° 04:26:13 10° 154° (SSE) 2,682 ? -19.8°
Sets 04:28:47 0° 156° (SSE) 3,626 ? -19.2°
